[[{"header":{"parameterUnit":"m.s-1","parameterCategory":1,"la1":30.2991,"la2":30.254,"lo1":-89.0895,"lo2":-89.0444,"dy":0.0017,"dx":0.0017,"nx":28,"ny":28,"refTime":"2023-07-31T21:00:00:Z","depth":0,"parameterNumber":2,"parameterNumberName":"U-component_of_WINDS"},"data":[0,0,0,0,0,0,0,0,0,0,0,0,0,0,0,0,0,0,0,0,0,0,0,0,0,0,0,0,0,0,0,0,0,0,0,0,0,0,0,0,0,0,0,0,0,0,0,0,0,0,0,0,0,0,0,0,0,0,0.8831,0.883,0,0.8816,0.8816,0.8816,0.8758,0.8756,0.8755,0.8754,0.8741,0.8742,0.8743,0,0,0,0,0,0,0,0,0,0,0,0,0,0.8809,0.881,0.8831,0.883,0.883,0.8816,0.8816,0.8816,0.8758,0.8756,0.8755,0.8753,0.8741,0.8742,0.8743,0,0,0,0,0,0,0,0,0,0,0,0,0,0.8809,0.881,0.8831,0.88,0.8797,0.8816,0.8816,0.8816,0.8758,0.8756,0.8754,0.8752,0.874,0.8742,0.8743,0.8792,0,0,0.8747,0.8748,0,0,0,0,0,0,0,0,0.8809,0.881,0.8804,0.8802,0.8799,0.8787,0.8804,0.8808,0.8759,0.8773,0.8754,0.8751,0.8758,0.8758,0.8759,0.8791,0.879,0.8747,0.8748,0.8749,0.8749,0,0,0,0,0,0,0,0.8809,0.881,0.8825,0.8804,0.8801,0.8787,0.8785,0.8804,0.8777,0.8772,0.8767,0.8766,0.8756,0.8758,0.8759,0.879,0.8747,0.8748,0.8749,0.875,0.886,0.8862,0,0,0,0,0,0,0.8814,0.8811,0.8825,0.8824,0.8799,0.8789,0.8786,0.8792,0.8777,0.8772,0.8768,0.8764,0.8757,0.8757,0.8758,0.8813,0.8749,0.875,0.8751,0.8858,0.8861,0.8863,0,0,0,0,0,0,0.8813,0.8815,0.8826,0.8816,0.8817,0.8791,0.8799,0.8793,0.8795,0.8774,0.8769,0.8775,0.8755,0.8756,0.8783,0.8812,0.875,0.8752,0.8856,0.8859,0.8862,0.8925,0,0,0,0,0,0,0.8813,0.8816,0.8834,0.8817,0.8817,0.8851,0.8801,0.8794,0.8798,0.8792,0.8779,0.8775,0.8754,0.8782,0.8785,0.8813,0.8753,0.8853,0.8857,0.8861,0.892,0.893,0.8938,0,0,0,0,0,0.8812,0.8853,0.8835,0.8837,0.8839,0.8853,0.8853,0.8827,0.88,0.8818,0.8804,0.8776,0.8809,0.8785,0.8788,0.8817,0.8851,0.8856,0.8861,0.8916,0.8928,0.8938,0,0,0,0,0,0,0.8874,0.885,0.883,0.8866,0.8862,0.8843,0.8865,0.884,0.8844,0.8839,0.8807,0.8804,0.8836,0.8829,0.8803,0.8863,0.8825,0.8831,0.8866,0.8877,0.8886,0.8887,0.8754,0,0,0,0,0,0.8892,0.8904,0.8883,0.8917,0.8915,0.8891,0.8896,0.8876,0.8871,0.8869,0.8857,0.8853,0.8863,0.887,0.8877,0.8919,0.8915,0.894,0.8949,0.8957,0.8962,0.8983,0.8993,0.8879,0.8879,0.8879,0,0,0.8928,0.8917,0.8927,0.8929,0.8923,0.8937,0.889,0.8907,0.8917,0.8872,0.8896,0.8887,0.8881,0.8916,0.8931,0.8911,0.8993,0.8963,0.8969,0.897,0.8989,0.8999,0.9009,0.8882,0.8881,0.8881,0,0,0.9002,0.8995,0.9022,0.9017,0.9009,0.8992,0.8999,0.8984,0.8976,0.9,0.8966,0.8978,0.8995,0.8992,0.8992,0.9064,0.9038,0.9068,0.9115,0.9135,0.9144,0.9152,0.9177,0.9187,0.9073,0.9073,0.9073,0,0.9049,0.9068,0.9039,0.9058,0.9059,0.9018,0.9045,0.9042,0.9038,0.904,0.9018,0.9038,0.9031,0.9064,0.9081,0.9083,0.909,0.9069,0.9145,0.9153,0.916,0.9183,0.9193,0.9077,0.9077,0.9076,0.9076,0,0.9126,0.914,0.9163,0.9158,0.9162,0.9185,0.916,0.9168,0.9147,0.9133,0.9158,0.9148,0.9152,0.9159,0.914,0.9189,0.9177,0.9151,0.9112,0.9175,0.9196,0.9205,0.9082,0.9081,0.908,0.9079,0,0,0.9238,0.9216,0.9225,0.9222,0.921,0.922,0.9242,0.9245,0.9252,0.9251,0.9267,0.9282,0.9258,0.9259,0.9239,0.9257,0.9314,0.9228,0.9228,0.9244,0.9367,0.9386,0.9397,0.9297,0.9298,0.93,0.9367,0,0.9308,0.9342,0.9316,0.9355,0.9367,0.9328,0.9346,0.9341,0.9328,0.9337,0.9323,0.9334,0.9301,0.9301,0.9318,0.9304,0.9338,0.9298,0.9312,0.9313,0.9314,0.9408,0.9429,0.9493,0.9375,0.9377,0.9378,0,0.9394,0.9395,0.9435,0.9419,0.9423,0.944,0.9441,0.945,0.9443,0.9432,0.9433,0.9408,0.9428,0.939,0.9417,0.9391,0.9395,0.9389,0.9391,0.939,0.9349,0.941,0.9513,0.9523,0.9391,0.939,0.9389,0,0.9471,0.9482,0.9507,0.9506,0.9489,0.9501,0.9495,0.9486,0.949,0.949,0.9492,0.9496,0.9498,0.9502,0.9478,0.9453,0.9508,0.9469,0.95,0.95,0.9513,0.9512,0.9617,0.9517,0.9516,0.9516,0.9516,0,0.9551,0.9577,0.9541,0.9557,0.9584,0.9554,0.9583,0.9572,0.9564,0.9577,0.9544,0.9557,0.9526,0.9536,0.9518,0.9542,0.9544,0.9535,0.953,0.9538,0.9539,0.954,0.9534,0.9519,0.9518,0.9518,0.9517,0,0.9642,0.9619,0.9643,0.9625,0.962,0.9642,0.9626,0.9639,0.9624,0.9641,0.9643,0.9619,0.9629,0.9606,0.9613,0.9601,0.9635,0.9624,0.9638,0.9634,0.9666,0.9663,0.9774,0.9787,0.9679,0.968,0.9681,0,0.9694,0.9713,0.9696,0.9701,0.9696,0.9706,0.9709,0.9681,0.9685,0.9679,0.9693,0.97,0.9703,0.9721,0.9705,0.9709,0.9697,0.9736,0.9697,0.9704,0.9696,0.9695,0.9697,0.9743,0.9745,0.9746,0.9747,0,0.9789,0.9777,0.9782,0.9783,0.9788,0.9788,0.9785,0.9792,0.9762,0.9769,0.9777,0.978,0.9786,0.9793,0.9794,0.9788,0.9763,0.9759,0.9766,0.9774,0.9781,0.9777,0.9658,0.9756,0.9755,0.9755,0.9754,0.9754,0.9862,0.9876,0.9866,0.9873,0.9868,0.9866,0.9878,0.9863,0.987,0.9872,0.9855,0.9868,0.986,0.9859,0.9855,0.9864,0.9847,0.9858,0.986,0.9863,0.9868,0.978,0.9865,0.9864,0.9864,0.9864,0.9864,0,0.9954,0.9946,0.9952,0.9949,0.9955,0.993,0.9925,0.9932,0.9943,0.9938,0.9942,0.9952,0.9958,0.9942,0.9946,0.9957,0.9945,0.9959,0.9958,0.9956,0.9884,0.9877,0.9968,0.9968,0.9968,0.9968,0.9968,0.9968,1.0003,1.0026,1.0012,1.0032,1.0023,1.0034,1.0034,1.0033,1.0028,1.004,1.0045,1.0035,1.0025,1.0028,1.0033,1.0028,1.0031,1.0048,1.004,0.9972,0.9962,0.9952,0.9945,1.0049,1.005,1.0111,1.0112,1.0112]},{"header":{"parameterUnit":"m.s-1","parameterCategory":1,"la1":30.2991,"la2":30.254,"lo1":-89.0895,"lo2":-89.0444,"dy":0.0017,"dx":0.0017,"nx":28,"ny":28,"refTime":"2023-07-31T21:00:00:Z","depth":0,"parameterNumber":3,"parameterNumberName":"V-component_of_WINDS"},"data":[0,0,0,0,0,0,0,0,0,0,0,0,0,0,0,0,0,0,0,0,0,0,0,0,0,0,0,0,0,0,0,0,0,0,0,0,0,0,0,0,0,0,0,0,0,0,0,0,0,0,0,0,0,0,0,0,0,0,-0.9816,-0.9816,0,-0.9837,-0.9837,-0.9837,-0.9851,-0.9851,-0.9851,-0.9851,-0.9871,-0.9872,-0.9872,0,0,0,0,0,0,0,0,0,0,0,0,0,-0.9788,-0.9789,-0.9816,-0.9816,-0.9817,-0.9837,-0.9837,-0.9837,-0.9851,-0.9851,-0.9851,-0.9851,-0.9871,-0.9872,-0.9872,0,0,0,0,0,0,0,0,0,0,0,0,0,-0.9804,-0.9789,-0.9816,-0.9826,-0.9827,-0.9837,-0.9837,-0.9837,-0.9851,-0.9851,-0.9851,-0.9851,-0.9871,-0.9871,-0.9872,-0.9873,0,0,-0.9874,-0.9874,0,0,0,0,0,0,0,0,-0.9803,-0.9805,-0.9824,-0.9825,-0.9826,-0.9841,-0.9834,-0.9849,-0.9851,-0.9842,-0.9851,-0.9851,-0.9861,-0.9863,-0.9866,-0.9874,-0.9875,-0.9874,-0.9875,-0.9875,-0.9875,0,0,0,0,0,0,0,-0.9802,-0.9804,-0.9824,-0.9824,-0.9826,-0.9829,-0.9831,-0.9837,-0.985,-0.9843,-0.9844,-0.9846,-0.9862,-0.9865,-0.9867,-0.9875,-0.9874,-0.9875,-0.9875,-0.9875,-0.9886,-0.9886,0,0,0,0,0,0,-0.9799,-0.9803,-0.9824,-0.9825,-0.9815,-0.9829,-0.9832,-0.9836,-0.985,-0.9853,-0.9846,-0.9847,-0.9864,-0.9866,-0.9867,-0.987,-0.9875,-0.9875,-0.9876,-0.9886,-0.9886,-0.9886,0,0,0,0,0,0,-0.9798,-0.9801,-0.9823,-0.9814,-0.9817,-0.983,-0.9835,-0.9837,-0.984,-0.9853,-0.9855,-0.9847,-0.9864,-0.9866,-0.9872,-0.9871,-0.9876,-0.9876,-0.9886,-0.9886,-0.9886,-0.9874,0,0,0,0,0,0,-0.9798,-0.98,-0.9801,-0.9814,-0.9818,-0.9827,-0.9834,-0.9837,-0.9842,-0.9843,-0.9855,-0.9857,-0.9865,-0.9871,-0.9872,-0.9872,-0.9877,-0.9886,-0.9886,-0.9886,-0.9875,-0.9874,-0.9873,0,0,0,0,0,-0.9797,-0.9797,-0.9801,-0.9803,-0.9819,-0.9827,-0.9829,-0.9838,-0.9842,-0.9842,-0.985,-0.9856,-0.9871,-0.9871,-0.9873,-0.9873,-0.9886,-0.9886,-0.9886,-0.9875,-0.9874,-0.9873,0,0,0,0,0,0,-0.9783,-0.9799,-0.9804,-0.9808,-0.9816,-0.9829,-0.983,-0.9837,-0.9843,-0.9844,-0.9855,-0.9858,-0.9862,-0.9868,-0.9868,-0.9875,-0.9879,-0.9879,-0.9871,-0.987,-0.9869,-0.9867,-0.9877,0,0,0,0,0,-0.978,-0.9786,-0.9799,-0.9802,-0.9806,-0.9817,-0.9821,-0.9828,-0.9837,-0.984,-0.9848,-0.9856,-0.9862,-0.9866,-0.9873,-0.9876,-0.9879,-0.9877,-0.9876,-0.9875,-0.9875,-0.9877,-0.9876,-0.9885,-0.9885,-0.9885,0,0,-0.9775,-0.9785,-0.9787,-0.98,-0.9807,-0.9812,-0.982,-0.9825,-0.983,-0.9841,-0.9846,-0.9853,-0.9862,-0.9867,-0.9869,-0.9872,-0.9873,-0.9874,-0.9874,-0.9874,-0.9877,-0.9876,-0.9875,-0.9884,-0.9885,-0.9885,0,0,-0.9769,-0.9776,-0.978,-0.9787,-0.9798,-0.9805,-0.9806,-0.9818,-0.9823,-0.9829,-0.9838,-0.9843,-0.9853,-0.986,-0.9865,-0.9862,-0.9868,-0.9863,-0.9858,-0.986,-0.986,-0.9859,-0.9858,-0.9858,-0.9863,-0.9863,-0.9863,0,-0.9761,-0.977,-0.9781,-0.9786,-0.9791,-0.9802,-0.9805,-0.9811,-0.9823,-0.9827,-0.9829,-0.9843,-0.985,-0.9857,-0.9856,-0.9859,-0.9861,-0.9862,-0.9859,-0.9859,-0.9858,-0.9858,-0.9857,-0.9863,-0.9863,-0.9863,-0.9863,0,-0.976,-0.9766,-0.9767,-0.9779,-0.9785,-0.9789,-0.98,-0.9804,-0.981,-0.9818,-0.9824,-0.9833,-0.9842,-0.9844,-0.985,-0.9851,-0.9853,-0.9857,-0.9862,-0.9857,-0.9856,-0.9856,-0.9862,-0.9862,-0.9862,-0.9862,0,0,-0.9745,-0.9764,-0.9764,-0.977,-0.9783,-0.9787,-0.9792,-0.9801,-0.9804,-0.9813,-0.9817,-0.9826,-0.983,-0.9836,-0.9843,-0.9845,-0.9842,-0.9849,-0.9849,-0.9847,-0.9844,-0.9841,-0.984,-0.9846,-0.9846,-0.9846,-0.9844,0,-0.9741,-0.975,-0.976,-0.9766,-0.9772,-0.9783,-0.9787,-0.9795,-0.9802,-0.9808,-0.9816,-0.9822,-0.9828,-0.9831,-0.9833,-0.9842,-0.9841,-0.9842,-0.985,-0.985,-0.9847,-0.984,-0.9836,-0.9833,-0.9843,-0.9843,-0.9843,0,-0.9737,-0.9745,-0.9752,-0.9765,-0.9767,-0.9771,-0.978,-0.9786,-0.9795,-0.9801,-0.9807,-0.9814,-0.982,-0.9824,-0.9832,-0.9832,-0.9836,-0.9841,-0.9841,-0.9842,-0.9846,-0.9841,-0.9833,-0.9832,-0.9843,-0.9843,-0.9843,0,-0.9726,-0.9738,-0.9744,-0.9749,-0.9764,-0.9766,-0.9772,-0.9782,-0.9787,-0.9795,-0.9799,-0.9807,-0.9812,-0.9818,-0.9828,-0.983,-0.9834,-0.9839,-0.9839,-0.9839,-0.9839,-0.9839,-0.9832,-0.9842,-0.9842,-0.9842,-0.9842,0,-0.972,-0.9723,-0.9739,-0.9743,-0.9747,-0.9759,-0.9763,-0.977,-0.9779,-0.9784,-0.9793,-0.9798,-0.981,-0.9816,-0.9824,-0.9829,-0.9831,-0.9835,-0.9837,-0.9835,-0.9834,-0.9837,-0.9838,-0.9841,-0.9841,-0.9841,-0.9841,0,-0.9708,-0.9719,-0.9726,-0.974,-0.9743,-0.9746,-0.9758,-0.9762,-0.977,-0.9776,-0.9778,-0.979,-0.9798,-0.9808,-0.9819,-0.9824,-0.9828,-0.9831,-0.9825,-0.9826,-0.9825,-0.9825,-0.982,-0.982,-0.9829,-0.9829,-0.9829,0,-0.9703,-0.9706,-0.9721,-0.9725,-0.9732,-0.9738,-0.9744,-0.9755,-0.976,-0.9772,-0.9774,-0.9783,-0.979,-0.9802,-0.9811,-0.982,-0.9823,-0.9821,-0.9824,-0.9822,-0.9823,-0.9823,-0.9824,-0.982,-0.9819,-0.9819,-0.9819,0,-0.9694,-0.97,-0.9707,-0.9717,-0.9723,-0.9731,-0.9739,-0.9742,-0.9755,-0.976,-0.9769,-0.9774,-0.9786,-0.9794,-0.9804,-0.981,-0.9817,-0.9818,-0.9818,-0.9816,-0.9812,-0.9814,-0.9823,-0.9818,-0.9818,-0.9818,-0.9818,-0.9818,-0.9686,-0.969,-0.9701,-0.9709,-0.9716,-0.9724,-0.9729,-0.9737,-0.9745,-0.9755,-0.9761,-0.9769,-0.9779,-0.9793,-0.9799,-0.9805,-0.9808,-0.9808,-0.9809,-0.9809,-0.9808,-0.9811,-0.9807,-0.9807,-0.9807,-0.9807,-0.9807,0,-0.9678,-0.9686,-0.9693,-0.9705,-0.9711,-0.9718,-0.9727,-0.9732,-0.9739,-0.9748,-0.9756,-0.9765,-0.9773,-0.9784,-0.9793,-0.9796,-0.9799,-0.9798,-0.9798,-0.9799,-0.9805,-0.9804,-0.9795,-0.9795,-0.9795,-0.9795,-0.9795,-0.9795,-0.9674,-0.9681,-0.9688,-0.9698,-0.9706,-0.9714,-0.9719,-0.9726,-0.9733,-0.9744,-0.9751,-0.9758,-0.9768,-0.9778,-0.9786,-0.9789,-0.9791,-0.9789,-0.9793,-0.9798,-0.9799,-0.98,-0.9799,-0.979,-0.979,-0.9787,-0.9787,-0.9787]}]]